Regional Weather Roundup
Issued by NWS Albany, NY

Home | Current Version | Previous Version | Graphics & Text | Print | Product List | Glossary On
Versions: 1 2 3 4 5 6 7 8 9 10 11 12 13 14 15 16 17 18 19 20 21 22 23 24 25 26 27 28 29 30 31 32 33 34 35 36 37 38 39 40 41 42 43 44 45 46 47 48 49 50
000
ASUS41 KALY 310510
RWRALY

NEW YORK STATE HOURLY WEATHER ROUNDUP
NATIONAL WEATHER SERVICE ALBANY NY
100 AM EDT THU JUL 31 2014

NOTE: "FAIR" INDICATES FEW OR NO CLOUDS BELOW 12,000 FEET WITH NO
SIGNIFICANT WEATHER AND/OR NO OBSTRUCTIONS TO VISIBILITY.

NYZ032-033-038>043-046>054-057>066-NYZ062>081-310600-
EAST


CITY           SKY/WX    TMP DP  RH WIND       PRES   REMARKS
ALBANY         MOCLDY    65  56  72 SW3       30.03S
GLENS FALLS    MOCLDY    61  57  87 S5        30.01S
POUGHKEEPSIE   CLEAR     60  57  89 CALM      30.03S
NEWBURGH       CLEAR     63  57  82 CALM      30.05F
MONTGOMERY     CLEAR     58  55  90 CALM      30.04S
WHITE PLAINS   CLEAR     63  59  87 CALM      30.05S
ISLIP          CLEAR     70  61  73 S5        30.04S
NEW YORK CITY  PTCLDY    72  59  63 S5        30.04S
CENTRAL PARK   CLEAR     70  55  59 CALM      30.08R
$$

NYZ005>009-017-018-044>046-055-056-310600-
CENTRAL


CITY           SKY/WX    TMP DP  RH WIND       PRES   REMARKS
FULTON         CLEAR     57  55  93 CALM      30.00S
SYRACUSE       PTCLDY    59  56  89 E3        30.00S
ROME           CLOUDY    58  57  97 SE3       30.03S
ELMIRA         CLEAR     54  53  97 CALM      30.04S
BINGHAMTON     CLEAR     57  55  93 S5        30.06R
MONTICELLO     PTCLDY    55  54  94 CALM      30.08S
$$

NYZ026>034-041>043-310600-
NORTH


CITY           SKY/WX    TMP DP  RH WIND       PRES   REMARKS
WATERTOWN      CLEAR     58  52  80 CALM      29.99S
FORT DRUM      NOT AVBL
MASSENA        CLOUDY    58  57  97 CALM      29.98S
SARANAC LAKE   CLOUDY    53  51  93 NE3       30.01S
PLATTSBURGH    MOCLDY    59  56  89 CALM      29.98S
$$

NYZ001>004-010>016-019>021-310600-
WEST


CITY           SKY/WX    TMP DP  RH WIND       PRES   REMARKS
NIAGARA FALLS  PTCLDY    57  54  89 W5        29.97F
BUFFALO        MOCLDY    64  58  80 SW5       29.98S
DUNKIRK        MOCLDY    63  57  81 S7        29.99F
JAMESTOWN      MOCLDY    57  55  94 S6        30.03F
WELLSVILLE     PTCLDY    57  52  83 SW6       30.06F
ROCHESTER      MOCLDY    60  58  92 SW7       29.99F
PENN YAN       PTCLDY    61  58  90 SW9       30.02F
$$

             KEY
       WCI = WIND CHILL INDEX
       VSB = VISIBILITY
       HX  = HEAT INDEX
$$


USA.gov is the U.S. government's official web portal to all federal, state and local government web resources and services.